Location: Newark
(49.9819°N, 3.0344°E)
Time: 13:26:25
(UTC+00:00)

ISS - Pass Details

Date: 24 January 2020
Orbit: 415 x 422 km, 51.6° (Epoch: 26 February)

Event Time Altitude Azimuth Distance (km) Brightness Sun altitude
Rises 17:18:47 0° 214° (SW) 2,369 1.0 -8.3°
Reaches altitude 10° 17:21:07 10° 201° (SSW) 1,507 -0.3 -8.6°
Maximum altitude 17:23:56 25° 144° (SE) 907 -2.2 -9.0°
Enters shadow 17:26:24 12° 91° (E) 1,390 -1.7 -9.4°
